Location: B�rgermoos
(47.6500°N, 9.0667°E)
Time: 13:38:40
(UTC+00:00)

Vanguard 2 Rocket - Pass Details

Date: 09 August 2021
Orbit: 555 x 3324 km, 32.9° (Epoch: 18 September)

Event Time Altitude Azimuth Distance (km) Brightness Sun altitude
Rises 06:45:53 0° 244° (WSW) 3,255 9.3 24.4°
Reaches altitude 10° 06:50:17 10° 209° (SSW) 1,988 8.5 25.2°
Maximum altitude 06:51:35 11° 192° (SSW) 1,845 8.5 25.4°
Drops below altitude 10° 06:52:50 10° 174° (S) 1,871 8.7 25.6°
Sets 06:56:32 0° 136° (SE) 2,721 10.1 26.2°
